Location: Prague
(50.0830°N, 14.4670°E)
Time: 15:49:50
(UTC+01:00)

AO-7 - Visible Passes

Search period start: 09 December 2021 00:00
Search period end: 19 December 2021 00:00
Orbit: 1439 x 1459 km, 101.9° (Epoch: 08 December)

Date Brightness Start Highest point End Pass type
(mag) Time Alt. Az. Time Alt. Az. Time Alt. Az.
09 Dec ? 03:31:19 10° NNE 03:38:54 37° E 03:46:26 10° SSE visible
09 Dec ? 05:23:55 10° NNE 05:32:05 64° WNW 05:40:16 10° SW visible
09 Dec ? 16:29:39 10° SSW 16:36:42 30° W 16:43:49 10° NW visible
10 Dec ? 02:33:02 10° NE 02:37:54 16° E 02:42:45 10° ESE visible
10 Dec ? 04:23:53 10° NNE 04:32:12 69° ESE 04:40:30 10° S visible
10 Dec ? 06:17:06 10° N 06:24:29 37° NW 06:31:53 10° WSW visible
10 Dec ? 17:26:34 10° WSW 17:30:40 14° W 17:34:46 10° NW visible
11 Dec ? 03:24:22 10° NNE 03:31:46 34° E 03:39:07 10° SSE visible
11 Dec ? 05:16:50 10° NNE 05:25:05 69° WNW 05:33:20 10° SW visible
11 Dec ? 07:10:29 10° N 07:16:29 23° NW 07:22:30 10° W visible
11 Dec ? 16:22:18 10° SSW 16:29:34 33° W 16:36:54 10° NNW visible
12 Dec ? 02:26:26 10° NE 02:30:41 15° E 02:34:55 10° ESE visible
12 Dec ? 04:16:51 10° NNE 04:25:08 64° ESE 04:33:24 10° S visible
12 Dec ? 06:10:01 10° NNE 06:17:33 40° NW 06:25:05 10° WSW visible
12 Dec ? 17:18:44 10° WSW 17:23:27 16° W 17:28:12 10° NW visible
13 Dec ? 03:17:27 10° NE 03:24:38 31° E 03:31:46 10° SSE visible
13 Dec ? 05:09:46 10° NNE 05:18:05 74° WNW 05:26:23 10° SSW visible
13 Dec ? 07:03:22 10° N 07:09:36 24° NW 07:15:50 10° W visible
14 Dec ? 02:19:59 10° ENE 02:23:28 13° E 02:26:56 10° ESE visible
14 Dec ? 04:09:50 10° NNE 04:18:04 59° ESE 04:26:16 10° S visible
14 Dec ? 06:02:56 10° NNE 06:10:36 43° NW 06:18:16 10° WSW visible
14 Dec ? 17:10:59 10° SW 17:16:14 18° W 17:21:32 10° NW visible
15 Dec ? 03:10:32 10° NE 03:17:29 28° E 03:24:23 10° SSE visible
15 Dec ? 05:02:43 10° NNE 05:11:04 80° WNW 05:19:24 10° SSW visible
15 Dec ? 06:56:16 10° N 07:02:42 26° NW 07:09:09 10° W visible
16 Dec ? 02:13:51 10° ENE 02:16:14 11° E 02:18:37 10° E visible
16 Dec ? 04:02:50 10° NNE 04:10:59 54° ESE 04:19:06 10° S visible
16 Dec ? 05:55:51 10° NNE 06:03:38 46° NW 06:11:26 10° SW visible
16 Dec ? 17:03:21 10° SW 17:09:03 20° W 17:14:47 10° NW visible
17 Dec ? 03:03:40 10° NE 03:10:20 26° E 03:16:57 10° SE visible
17 Dec ? 04:55:39 10° NNE 05:04:02 86° WNW 05:12:24 10° SSW visible
17 Dec ? 06:49:09 10° N 06:55:48 28° NW 07:02:27 10° W visible
18 Dec ? 03:55:50 10° NNE 04:03:53 50° E 04:11:55 10° S visible
18 Dec ? 05:48:46 10° NNE 05:56:40 50° WNW 06:04:35 10° SW visible
18 Dec ? 16:55:47 10° SW 17:01:52 22° W 17:08:00 10° NW visible
